WJA019 CYVR-CYYC

Flight info

Callsign WJA019
Flight time 1h 19m
Altitude 35000
Route DAPED DCT PETLI DCT MENBO Q983 NORET IGVEP7
Aircraft B738/M-SDE2E3FGHIRWXY/LB1

Departure

Time 2026-05-04 14:06
Airport Vancouver International Airport (CYVR)

Arrival

Time 2026-05-04 15:25
Airport Calgary International Airport (CYYC)
Time Latitude Longitude Altitude Speed Heading
2026-05-04 13:42 49.19173 -123.18158 24 ft 0 kts
2026-05-04 13:52 49.19169 -123.18159 24 ft 2 kts
2026-05-04 13:52 49.19153 -123.18163 28 ft 2 kts
2026-05-04 13:52 49.19137 -123.18167 26 ft 2 kts
2026-05-04 13:53 49.19121 -123.18172 27 ft 2 kts 18°
2026-05-04 13:53 49.19106 -123.18183 28 ft 2 kts 57°
2026-05-04 13:53 49.19102 -123.18200 29 ft 1 kts 91°
2026-05-04 13:54 49.19102 -123.18207 29 ft 0 kts 94°
2026-05-04 13:55 49.19103 -123.18195 26 ft 3 kts 82°
2026-05-04 13:55 49.19107 -123.18145 28 ft 6 kts 88°
2026-05-04 13:56 49.19100 -123.18084 26 ft 6 kts 111°
2026-05-04 13:56 49.19071 -123.18046 26 ft 6 kts 162°
2026-05-04 13:56 49.18994 -123.18057 26 ft 6 kts 189°
2026-05-04 13:57 49.18956 -123.18067 26 ft 5 kts 189°
2026-05-04 13:57 49.18920 -123.18064 26 ft 5 kts 150°
2026-05-04 13:58 49.18888 -123.17859 27 ft 10 kts 99°
2026-05-04 13:58 49.18859 -123.17605 27 ft 13 kts 100°
2026-05-04 13:58 49.18843 -123.17465 25 ft 13 kts 100°
2026-05-04 13:59 49.18827 -123.17329 24 ft 13 kts 100°
2026-05-04 13:59 49.18812 -123.17197 24 ft 12 kts 100°
2026-05-04 13:59 49.18783 -123.16942 25 ft 12 kts 100°
2026-05-04 14:00 49.18769 -123.16820 25 ft 12 kts 100°
2026-05-04 14:00 49.18742 -123.16585 25 ft 11 kts 100°
2026-05-04 14:00 49.18730 -123.16472 27 ft 11 kts 100°
2026-05-04 14:01 49.18718 -123.16368 26 ft 9 kts 100°
2026-05-04 14:01 49.18693 -123.16285 26 ft 9 kts 130°
2026-05-04 14:01 49.18633 -123.16139 25 ft 9 kts 99°
2026-05-04 14:02 49.18623 -123.16047 24 ft 9 kts 100°
2026-05-04 14:02 49.18612 -123.15955 24 ft 7 kts 100°
2026-05-04 14:02 49.18609 -123.15931 24 ft 0 kts 100°
2026-05-04 14:03 49.18608 -123.15916 24 ft 4 kts 100°
2026-05-04 14:04 49.18558 -123.15753 26 ft 11 kts 165°
2026-05-04 14:04 49.18485 -123.15770 24 ft 11 kts 199°
2026-05-04 14:04 49.18446 -123.15852 28 ft 10 kts 271°
2026-05-04 14:05 49.18493 -123.16263 28 ft 65 kts 280°
2026-05-04 14:05 49.18624 -123.17417 27 ft 152 kts 280°
2026-05-04 14:05 49.18843 -123.19334 331 ft 202 kts 280°
2026-05-04 14:06 49.19100 -123.21529 1245 ft 216 kts 281°
2026-05-04 14:06 49.19368 -123.23818 2297 ft 222 kts 280°
2026-05-04 14:06 49.19633 -123.26300 2620 ft 257 kts 279°
2026-05-04 14:06 49.19908 -123.29095 3327 ft 267 kts 278°
2026-05-04 14:07 49.20176 -123.31935 4208 ft 271 kts 278°
2026-05-04 14:07 49.20444 -123.34804 5127 ft 274 kts 277°
2026-05-04 14:07 49.20327 -123.37698 5996 ft 276 kts 252°
2026-05-04 14:07 49.19361 -123.40218 6876 ft 278 kts 225°
2026-05-04 14:08 49.17874 -123.42105 7730 ft 280 kts 213°
2026-05-04 14:08 49.16035 -123.43077 8509 ft 286 kts 181°
2026-05-04 14:08 49.14113 -123.42386 9333 ft 290 kts 149°
2026-05-04 14:08 49.12696 -123.40224 10108 ft 294 kts 117°
2026-05-04 14:09 49.11840 -123.34114 11489 ft 304 kts 87°
2026-05-04 14:09 49.11979 -123.30790 11848 ft 322 kts 83°
2026-05-04 14:10 49.12418 -123.23868 13298 ft 331 kts 82°
2026-05-04 14:10 49.12594 -123.20345 14061 ft 334 kts 83°
2026-05-04 14:10 49.12735 -123.16788 14749 ft 338 kts 84°
2026-05-04 14:10 49.12850 -123.13187 15426 ft 342 kts 84°
2026-05-04 14:11 49.12947 -123.09546 16101 ft 345 kts 84°
2026-05-04 14:11 49.13110 -123.02132 17444 ft 353 kts 85°
2026-05-04 14:11 49.13182 -122.98366 18113 ft 357 kts 84°
2026-05-04 14:12 49.13252 -122.94553 18688 ft 361 kts 84°
2026-05-04 14:12 49.13320 -122.90703 19287 ft 364 kts 84°
2026-05-04 14:12 49.13453 -122.82903 20435 ft 371 kts 84°
2026-05-04 14:13 49.13518 -122.78949 20997 ft 374 kts 84°
2026-05-04 14:13 49.13582 -122.74962 21560 ft 378 kts 84°
2026-05-04 14:13 49.13646 -122.70929 22114 ft 381 kts 84°
2026-05-04 14:13 49.13709 -122.66858 22658 ft 385 kts 84°
2026-05-04 14:14 49.13771 -122.62758 23200 ft 389 kts 84°
2026-05-04 14:14 49.13892 -122.54442 24185 ft 394 kts 84°
2026-05-04 14:14 49.13950 -122.50251 24675 ft 395 kts 84°
2026-05-04 14:15 49.14063 -122.41822 25628 ft 399 kts 84°
2026-05-04 14:15 49.14172 -122.33310 26530 ft 403 kts 84°
2026-05-04 14:16 49.14275 -122.24709 27410 ft 407 kts 84°
2026-05-04 14:16 49.14325 -122.20373 27836 ft 409 kts 84°
2026-05-04 14:17 49.14420 -122.11644 28674 ft 413 kts 84°
2026-05-04 14:17 49.14466 -122.07250 29072 ft 415 kts 84°
2026-05-04 14:17 49.14552 -121.98409 29844 ft 418 kts 84°
2026-05-04 14:18 49.14593 -121.93947 30161 ft 421 kts 84°
2026-05-04 14:18 49.14671 -121.84965 30794 ft 424 kts 83°
2026-05-04 14:19 49.14743 -121.75932 31440 ft 427 kts 83°
2026-05-04 14:19 49.14776 -121.71380 31722 ft 429 kts 83°
2026-05-04 14:19 49.14844 -121.66816 31881 ft 429 kts 79°
2026-05-04 14:19 49.15155 -121.62296 32217 ft 426 kts 76°
2026-05-04 14:20 49.15561 -121.57828 32527 ft 425 kts 75°
2026-05-04 14:20 49.16001 -121.53343 32740 ft 428 kts 75°
2026-05-04 14:20 49.16446 -121.48830 32992 ft 431 kts 75°
2026-05-04 14:21 49.17312 -121.39672 33526 ft 433 kts 75°
2026-05-04 14:21 49.17728 -121.35102 33777 ft 435 kts 75°
2026-05-04 14:21 49.18131 -121.30572 33984 ft 437 kts 75°
2026-05-04 14:21 49.18542 -121.25895 34179 ft 440 kts 75°
2026-05-04 14:22 49.18946 -121.21254 34401 ft 440 kts 75°
2026-05-04 14:22 49.19348 -121.16613 34615 ft 441 kts 75°
2026-05-04 14:22 49.19743 -121.12020 34827 ft 442 kts 75°
2026-05-04 14:22 49.20149 -121.07293 34958 ft 442 kts 75°
2026-05-04 14:23 49.21348 -120.93238 34971 ft 450 kts 75°
2026-05-04 14:24 49.22140 -120.83769 34987 ft 448 kts 75°
2026-05-04 14:24 49.22927 -120.74324 34996 ft 448 kts 75°
2026-05-04 14:25 49.23708 -120.64861 35007 ft 447 kts 75°
2026-05-04 14:25 49.24860 -120.50707 35015 ft 447 kts 75°
2026-05-04 14:26 49.25497 -120.42799 35020 ft 447 kts 75°
2026-05-04 14:26 49.26371 -120.31817 35001 ft 447 kts 75°
2026-05-04 14:27 49.26993 -120.23907 35003 ft 447 kts 75°
2026-05-04 14:27 49.27731 -120.14455 34984 ft 447 kts 75°
2026-05-04 14:28 49.28459 -120.04996 34945 ft 447 kts 76°
2026-05-04 14:28 49.29184 -119.95534 34950 ft 448 kts 75°
2026-05-04 14:29 49.30607 -119.76563 34949 ft 448 kts 75°
2026-05-04 14:30 49.31310 -119.67059 34940 ft 449 kts 75°
2026-05-04 14:30 49.32837 -119.58008 34934 ft 431 kts 58°
2026-05-04 14:31 49.34152 -119.53919 34946 ft 427 kts 56°
2026-05-04 14:32 49.39572 -119.37711 34944 ft 427 kts 56°
2026-05-04 14:32 49.42252 -119.29558 34930 ft 429 kts 56°
2026-05-04 14:33 49.44928 -119.21350 34925 ft 430 kts 56°
2026-05-04 14:33 49.47597 -119.13124 34929 ft 430 kts 56°
2026-05-04 14:34 49.50260 -119.04891 34935 ft 430 kts 56°
2026-05-04 14:34 49.52920 -118.96642 34935 ft 430 kts 56°
2026-05-04 14:35 49.55577 -118.88376 34933 ft 430 kts 56°
2026-05-04 14:35 49.58223 -118.80115 34922 ft 430 kts 56°
2026-05-04 14:36 49.60865 -118.71842 34933 ft 430 kts 56°
2026-05-04 14:36 49.63501 -118.63562 34922 ft 431 kts 56°
2026-05-04 14:37 49.66157 -118.55193 34914 ft 431 kts 56°
2026-05-04 14:37 49.68771 -118.46921 34927 ft 431 kts 56°
2026-05-04 14:38 49.71396 -118.38587 34932 ft 432 kts 56°
2026-05-04 14:38 49.74023 -118.30225 34928 ft 432 kts 56°
2026-05-04 14:39 49.76646 -118.21844 34923 ft 433 kts 56°
2026-05-04 14:39 49.79266 -118.13447 34934 ft 434 kts 56°
2026-05-04 14:40 49.83185 -118.00826 34948 ft 434 kts 56°
2026-05-04 14:40 49.85792 -117.92395 34950 ft 433 kts 56°
2026-05-04 14:41 49.88412 -117.83897 34953 ft 435 kts 56°
2026-05-04 14:42 49.93621 -117.66909 34955 ft 436 kts 56°
2026-05-04 14:42 49.96222 -117.58380 34969 ft 437 kts 56°
2026-05-04 14:43 49.98819 -117.49838 34967 ft 437 kts 56°
2026-05-04 14:43 50.01417 -117.41281 34951 ft 438 kts 56°
2026-05-04 14:44 50.04005 -117.32702 34960 ft 437 kts 56°
2026-05-04 14:44 50.06570 -117.24159 34972 ft 433 kts 56°
2026-05-04 14:45 50.09120 -117.15645 34963 ft 434 kts 56°
2026-05-04 14:45 50.11677 -117.07090 34958 ft 436 kts 56°
2026-05-04 14:46 50.14225 -116.98525 34971 ft 435 kts 56°
2026-05-04 14:46 50.16768 -116.89952 34979 ft 437 kts 56°
2026-05-04 14:47 50.19322 -116.81317 34823 ft 442 kts 56°
2026-05-04 14:47 50.20610 -116.76954 34409 ft 442 kts 57°
2026-05-04 14:47 50.21879 -116.72629 33966 ft 435 kts 57°
2026-05-04 14:48 50.23130 -116.68350 33531 ft 431 kts 57°
2026-05-04 14:48 50.24369 -116.64118 33055 ft 426 kts 57°
2026-05-04 14:48 50.25591 -116.59936 32607 ft 422 kts 57°
2026-05-04 14:48 50.26804 -116.55781 32149 ft 418 kts 57°
2026-05-04 14:49 50.28005 -116.51662 31719 ft 415 kts 57°
2026-05-04 14:49 50.29198 -116.47569 31296 ft 412 kts 57°
2026-05-04 14:49 50.30381 -116.43503 30853 ft 410 kts 57°
2026-05-04 14:49 50.31556 -116.39455 30440 ft 407 kts 57°
2026-05-04 14:50 50.32720 -116.35438 29984 ft 404 kts 57°
2026-05-04 14:50 50.33875 -116.31444 29549 ft 401 kts 57°
2026-05-04 14:50 50.35020 -116.27480 29067 ft 398 kts 57°
2026-05-04 14:50 50.36155 -116.23545 28623 ft 395 kts 57°
2026-05-04 14:51 50.37278 -116.19645 28217 ft 391 kts 57°
2026-05-04 14:51 50.38388 -116.15778 27753 ft 387 kts 57°
2026-05-04 14:51 50.39443 -116.11913 27381 ft 386 kts 60°
2026-05-04 14:51 50.40367 -116.07959 26941 ft 386 kts 62°
2026-05-04 14:52 50.41230 -116.03973 26516 ft 385 kts 62°
2026-05-04 14:52 50.42075 -116.00007 26105 ft 383 kts 62°
2026-05-04 14:52 50.42920 -115.96067 25699 ft 380 kts 62°
2026-05-04 14:52 50.43770 -115.92143 25290 ft 378 kts 62°
2026-05-04 14:53 50.44618 -115.88260 24895 ft 376 kts 62°
2026-05-04 14:53 50.45467 -115.84394 24474 ft 374 kts 62°
2026-05-04 14:53 50.46311 -115.80554 24088 ft 372 kts 62°
2026-05-04 14:53 50.47155 -115.76720 23727 ft 370 kts 62°
2026-05-04 14:54 50.47994 -115.72898 23247 ft 371 kts 62°
2026-05-04 14:54 50.48830 -115.69079 22801 ft 369 kts 63°
2026-05-04 14:54 50.49659 -115.65278 22408 ft 366 kts 63°
2026-05-04 14:54 50.50479 -115.61512 22018 ft 363 kts 63°
2026-05-04 14:55 50.51295 -115.57767 21622 ft 362 kts 63°
2026-05-04 14:55 50.52107 -115.54037 21244 ft 360 kts 63°
2026-05-04 14:55 50.52916 -115.50314 20855 ft 360 kts 64°
2026-05-04 14:55 50.53719 -115.46602 20444 ft 357 kts 64°
2026-05-04 14:56 50.54513 -115.42918 20112 ft 354 kts 64°
2026-05-04 14:56 50.55298 -115.39249 19730 ft 353 kts 64°
2026-05-04 14:56 50.56078 -115.35607 19372 ft 350 kts 64°
2026-05-04 14:56 50.56852 -115.31983 18999 ft 348 kts 65°
2026-05-04 14:57 50.57619 -115.28390 18607 ft 346 kts 65°
2026-05-04 14:57 50.58380 -115.24808 18201 ft 343 kts 65°
2026-05-04 14:57 50.59134 -115.21262 17840 ft 341 kts 65°
2026-05-04 14:57 50.59891 -115.17710 17496 ft 345 kts 66°
2026-05-04 14:58 50.60665 -115.14075 17105 ft 354 kts 66°
2026-05-04 14:58 50.61442 -115.10407 16704 ft 354 kts 66°
2026-05-04 14:58 50.62215 -115.06737 16336 ft 350 kts 66°
2026-05-04 14:58 50.62728 -115.04298 16078 ft 343 kts 66°
2026-05-04 14:59 50.63717 -114.99616 15634 ft 339 kts 66°
2026-05-04 14:59 50.64463 -114.96095 15268 ft 339 kts 66°
2026-05-04 14:59 50.65954 -114.89043 14301 ft 345 kts 67°
2026-05-04 15:00 50.66708 -114.85461 13892 ft 343 kts 68°
2026-05-04 15:00 50.67443 -114.81933 13688 ft 335 kts 67°
2026-05-04 15:00 50.67924 -114.79605 13572 ft 324 kts 67°
2026-05-04 15:01 50.69272 -114.73085 13285 ft 302 kts 67°
2026-05-04 15:01 50.69911 -114.69996 13203 ft 292 kts 66°
2026-05-04 15:01 50.70533 -114.66986 13078 ft 283 kts 66°
2026-05-04 15:01 50.70998 -114.64020 13056 ft 279 kts 82°
2026-05-04 15:02 50.70725 -114.60983 13058 ft 285 kts 107°
2026-05-04 15:02 50.69712 -114.58274 13065 ft 291 kts 131°
2026-05-04 15:02 50.68085 -114.56398 13068 ft 292 kts 159°
2026-05-04 15:02 50.66119 -114.55763 13070 ft 288 kts 186°
2026-05-04 15:03 50.64215 -114.56479 13066 ft 279 kts 213°
2026-05-04 15:03 50.62700 -114.58264 13067 ft 269 kts 234°
2026-05-04 15:03 50.61684 -114.60665 13055 ft 259 kts 253°
2026-05-04 15:03 50.61054 -114.63302 13073 ft 256 kts 257°
2026-05-04 15:04 50.60492 -114.65966 13072 ft 257 kts 257°
2026-05-04 15:04 50.59927 -114.68634 13050 ft 257 kts 257°
2026-05-04 15:04 50.59355 -114.71291 13056 ft 255 kts 257°
2026-05-04 15:04 50.58887 -114.73955 13031 ft 250 kts 271°
2026-05-04 15:05 50.59075 -114.76606 13085 ft 242 kts 290°
2026-05-04 15:05 50.59794 -114.78985 13057 ft 240 kts 307°
2026-05-04 15:05 50.60959 -114.80842 13056 ft 237 kts 325°
2026-05-04 15:05 50.62448 -114.81953 13040 ft 239 kts 343°
2026-05-04 15:06 50.64107 -114.82177 13033 ft 243 kts
2026-05-04 15:06 50.65746 -114.81443 13038 ft 249 kts 22°
2026-05-04 15:06 50.67167 -114.79841 13040 ft 257 kts 40°
2026-05-04 15:07 50.68826 -114.74743 13070 ft 269 kts 65°
2026-05-04 15:07 50.69439 -114.71952 13073 ft 269 kts 65°
2026-05-04 15:07 50.70051 -114.69152 13053 ft 271 kts 65°
2026-05-04 15:07 50.70666 -114.66334 13061 ft 272 kts 65°
2026-05-04 15:08 50.71013 -114.63376 13052 ft 282 kts 89°
2026-05-04 15:08 50.70523 -114.60358 13057 ft 291 kts 115°
2026-05-04 15:08 50.69244 -114.57886 13046 ft 294 kts 143°
2026-05-04 15:08 50.67408 -114.56550 13057 ft 291 kts 173°
2026-05-04 15:09 50.65434 -114.56648 13067 ft 281 kts 201°
2026-05-04 15:09 50.63757 -114.58047 13069 ft 269 kts 228°
2026-05-04 15:09 50.62580 -114.60246 13066 ft 260 kts 248°
2026-05-04 15:10 50.61326 -114.65466 13053 ft 255 kts 258°
2026-05-04 15:10 50.60770 -114.68120 13056 ft 256 kts 257°
2026-05-04 15:10 50.59682 -114.73479 13034 ft 255 kts 268°
2026-05-04 15:11 50.59808 -114.76182 13071 ft 245 kts 290°
2026-05-04 15:11 50.60540 -114.78558 13041 ft 239 kts 309°
2026-05-04 15:11 50.61732 -114.80334 13039 ft 237 kts 328°
2026-05-04 15:11 50.63250 -114.81300 13025 ft 237 kts 348°
2026-05-04 15:12 50.64904 -114.81308 13021 ft 243 kts
2026-05-04 15:12 50.66496 -114.80292 13061 ft 254 kts 28°
2026-05-04 15:12 50.67831 -114.78365 13053 ft 263 kts 49°
2026-05-04 15:12 50.68650 -114.75743 13068 ft 271 kts 65°
2026-05-04 15:13 50.69258 -114.72926 13046 ft 271 kts 66°
2026-05-04 15:13 50.69852 -114.70137 13048 ft 272 kts 66°
2026-05-04 15:13 50.70460 -114.67310 13057 ft 272 kts 65°
2026-05-04 15:13 50.71166 -114.64559 13045 ft 270 kts 49°
2026-05-04 15:14 50.72463 -114.62506 13074 ft 262 kts 34°
2026-05-04 15:14 50.73880 -114.60510 12539 ft 273 kts 38°
2026-05-04 15:14 50.75242 -114.58424 12202 ft 273 kts 39°
2026-05-04 15:14 50.76569 -114.56313 11957 ft 270 kts 42°
2026-05-04 15:15 50.77493 -114.53750 11704 ft 278 kts 66°
2026-05-04 15:15 50.78041 -114.50835 11445 ft 276 kts 68°
2026-05-04 15:15 50.78569 -114.47934 11185 ft 274 kts 68°
2026-05-04 15:16 50.79631 -114.42233 10664 ft 269 kts 67°
2026-05-04 15:16 50.80168 -114.39411 10414 ft 267 kts 67°
2026-05-04 15:16 50.81237 -114.33860 9915 ft 262 kts 66°
2026-05-04 15:17 50.81763 -114.31144 9659 ft 260 kts 67°
2026-05-04 15:17 50.82822 -114.25680 9168 ft 260 kts 67°
2026-05-04 15:17 50.83352 -114.22939 8927 ft 261 kts 67°
2026-05-04 15:18 50.83880 -114.20200 8658 ft 259 kts 67°
2026-05-04 15:18 50.84401 -114.17492 8442 ft 255 kts 67°
2026-05-04 15:18 50.85005 -114.14894 8177 ft 247 kts 53°
2026-05-04 15:19 50.87065 -114.10709 7767 ft 236 kts 46°
2026-05-04 15:19 50.88071 -114.08699 7542 ft 235 kts 46°
2026-05-04 15:19 50.90062 -114.04658 7121 ft 231 kts 46°
2026-05-04 15:20 50.91050 -114.02643 6892 ft 231 kts 46°
2026-05-04 15:20 50.92049 -114.00646 6664 ft 229 kts 40°
2026-05-04 15:20 50.93359 -113.99392 6550 ft 220 kts 11°
2026-05-04 15:20 50.94872 -113.99118 6515 ft 210 kts
2026-05-04 15:21 50.96271 -113.99063 6493 ft 198 kts 358°
2026-05-04 15:21 50.97643 -113.99054 6338 ft 194 kts 358°
2026-05-04 15:21 51.00194 -113.99051 5822 ft 169 kts 358°
2026-05-04 15:22 51.01330 -113.99049 5605 ft 158 kts 358°
2026-05-04 15:22 51.02368 -113.99047 5397 ft 142 kts 358°
2026-05-04 15:22 51.04350 -113.99046 5028 ft 147 kts 358°
2026-05-04 15:23 51.05382 -113.99051 4809 ft 148 kts 359°
2026-05-04 15:23 51.06403 -113.99051 4631 ft 146 kts 359°
2026-05-04 15:23 51.07420 -113.99049 4380 ft 146 kts 356°
2026-05-04 15:23 51.08448 -113.99043 4149 ft 148 kts
2026-05-04 15:24 51.10501 -113.99040 3731 ft 144 kts 359°
2026-05-04 15:24 51.12264 -113.99038 3563 ft 83 kts
2026-05-04 15:25 51.12665 -113.99035 3561 ft 47 kts
2026-05-04 15:25 51.12953 -113.99067 3561 ft 33 kts 339°
2026-05-04 15:25 51.13089 -113.99185 3559 ft 12 kts 326°
2026-05-04 15:26 51.13038 -113.99306 3559 ft 9 kts 180°
2026-05-04 15:26 51.12976 -113.99306 3557 ft 9 kts 180°
2026-05-04 15:26 51.12856 -113.99305 3559 ft 8 kts 179°
2026-05-04 15:27 51.12794 -113.99304 3560 ft 10 kts 180°
2026-05-04 15:27 51.12651 -113.99306 3560 ft 9 kts 185°
2026-05-04 15:28 51.12611 -113.99465 3559 ft 8 kts 270°
2026-05-04 15:28 51.12611 -113.99558 3559 ft 9 kts 270°
2026-05-04 15:28 51.12613 -113.99786 3559 ft 13 kts 270°
2026-05-04 15:29 51.12613 -113.99939 3559 ft 15 kts 270°
2026-05-04 15:30 51.12613 -114.00739 3558 ft 18 kts 270°
2026-05-04 15:30 51.12601 -114.01249 3558 ft 14 kts 268°
2026-05-04 15:31 51.12601 -114.01545 3558 ft 13 kts 269°
2026-05-04 15:31 51.12609 -114.01660 3558 ft 9 kts 304°
2026-05-04 15:32 51.12782 -114.01683 3558 ft 8 kts 360°
2026-05-04 15:32 51.12892 -114.01680 3556 ft 8 kts
2026-05-04 15:33 51.12979 -114.01677 3558 ft 7 kts 360°
2026-05-04 15:34 51.13128 -114.01678 3557 ft 7 kts 12°
2026-05-04 15:34 51.13154 -114.01618 3558 ft 7 kts 83°
2026-05-04 15:34 51.13157 -114.01478 3556 ft 6 kts 70°
2026-05-04 15:35 51.13223 -114.01421 3556 ft 3 kts 21°
2026-05-04 15:35 51.13234 -114.01414 3558 ft 1 kts 21°
2026-05-04 15:35 51.13241 -114.01410 3557 ft 1 kts 21°
2026-05-04 15:36 51.13244 -114.01408 3558 ft 0 kts 21°